Location: Arbon
(43.0005°N, 0.7472°E)
Time: 17:07:30
(UTC+00:00)

CZ-2C R/B - Pass Details

Date: 07 August 2020
Orbit: 668 x 784 km, 98.2° (Epoch: 22 September)

Event Time Altitude Azimuth Distance (km) Brightness Sun altitude
Rises 04:18:07 0° 10° (N) 3,023 6.2 -6.8°
Reaches altitude 10° 04:20:21 10° 8° (N) 2,104 5.3 -6.4°
Maximum altitude 04:24:53 67° 286° (WNW) 732 2.3 -5.7°
Drops below altitude 10° 04:29:27 10° 205° (SSW) 2,111 4.3 -5.0°
Sets 04:31:42 0° 202° (SSW) 3,033 5.1 -4.6°
